{"data":{"norad_id":46112,"epoch":"2026-05-25T00:50:36.291264Z","epoch_age_seconds":82045,"freshness":"FRESH","line1":"1 46112U 20056A   26145.03514226 -.00000353  00000+0  00000+0 0  9998","line2":"2 46112   0.0373 191.9382 0003815 274.1250 259.0425  1.00270280 21156","mean_motion":1.0027028,"eccentricity":0.0003815,"inclination_deg":0.0373,"raan_deg":191.9382,"arg_perigee_deg":274.125,"mean_anomaly_deg":259.0425,"bstar":0,"rev_number":2115,"period_min":1436.1184590289,"perigee_km":35770.930866398,"apogee_km":35803.102878803,"semimajor_km":42165.153872601,"source":"CELESTRAK","updated_at":"2026-05-25T13:38:14.095755Z"}}